{"data":{"norad_id":46144,"epoch":"2026-05-25T00:00:02.000160Z","epoch_age_seconds":72090,"freshness":"FRESH","line1":"1 46144U 20057AD  26145.00002315  .00165204  00000+0  71519-3 0  9995","line2":"2 46144  53.0392 237.2040 0007014 325.0580 150.4212 15.83888677  6019","mean_motion":15.83888677,"eccentricity":0.0007014,"inclination_deg":53.0392,"raan_deg":237.204,"arg_perigee_deg":325.058,"mean_anomaly_deg":150.4212,"bstar":0.00071519,"rev_number":601,"period_min":90.915480419209,"perigee_km":314.75808988863,"apogee_km":324.15347304247,"semimajor_km":6697.5927814656,"source":"CELESTRAK","updated_at":"2026-05-25T13:38:16.467139Z"}}